Columbus, OH

1:40 PM EDT on October 18, 2017 (GMT -0400)
Port Columbus International

Weather History for KCMH - September, 2012

Change the Weather History Date:

Sunday, September 23, 2012

  Actual Average Record
Temperature  
Mean Temperature 52 °F 64 °F  
Max Temperature 64 °F 74 °F 93 °F (2010)
Min Temperature 40 °F 54 °F 33 °F (1995)
Degree Days  
Heating Degree Days 13 4  
Month to date heating degree days 47 36  
Since 1 July heating degree days 47 36  
Cooling Degree Days 0 2  
Month to date cooling degree days 115 108  
Year to date cooling degree days 1418 997  
Growing Degree Days 2 (Base 50)    
Moisture  
Dew Point 38 °F    
Average Humidity 65    
Maximum Humidity 93    
Minimum Humidity 36    
Precipitation  
Precipitation 0.00 in 0.10 in 1.93 in (2000)
Month to date precipitation 3.10 2.22  
Year to date precipitation 25.98 29.91  
Snow  
Snow 0.00 in 0.00 in - ()
Month to date snowfall 0.0 0.0  
Since 1 July snowfall 0.0 0.0  
Since 1 September snowfall 0.0 0.0  
Snow Depth 0.00 in    
Sea Level Pressure  
Sea Level Pressure 30.18 in    
Wind  
Wind Speed 5 mph (WNW)    
Max Wind Speed 16 mph    
Max Gust Speed 21 mph    
Visibility 10 miles    
Events      
T = Trace of Precipitation, MM = Missing Value Source: NWS Daily Summary

Daily Weather History Graph

Daily Weather History Graph

Search for Another Location

Airport or City:

Trip Planner

Search our weather history database for the weather conditions in past years. The results will help you decide how hot, cold, wet, or windy it might be!

Date:

Astronomy

Sep. 23, 2012 Rise Set
Actual Time 7:20 AM EDT 7:26 PM EDT
Civil Twilight 6:53 AM EDT 7:53 PM EDT
Nautical Twilight 6:21 AM EDT 8:24 PM EDT
Astronomical Twilight 5:49 AM EDT 8:56 PM EDT
Moon 3:26 PM EDT (9/23) 12:31 AM EDT (9/23)
Length of Visible Light 12h 59m
Length of Day
12h 05m
First Quarter, 60% of the Moon is Illuminated
Sep 23
First Quarter
Sep 29
Full
Oct 8
Last Quarter
Oct 15
New
Oct 21
First Quarter

Hourly Weather History & Observations

Time (EDT) Temp. Windchill Dew Point Humidity Pressure Visibility Wind Dir Wind Speed Gust Speed Precip Events Conditions
12:51 AM 48.0 °F - 39.0 °F 71% 30.14 in 10.0 mi Calm Calm - N/A   Clear
1:51 AM 45.0 °F - 39.9 °F 82% 30.14 in 10.0 mi Calm Calm - N/A   Clear
2:51 AM 44.1 °F - 39.9 °F 85% 30.13 in 10.0 mi Calm Calm - N/A   Clear
3:51 AM 42.8 °F - 39.2 °F 87% 30.14 in 10.0 mi Calm Calm - N/A   Clear
4:51 AM 41.0 °F 39.0 °F 39.0 °F 93% 30.16 in 10.0 mi SSE 3.5 mph - N/A   Clear
5:51 AM 42.1 °F - 39.0 °F 89% 30.17 in 10.0 mi Calm Calm - N/A   Clear
6:51 AM 41.0 °F 39.0 °F 37.9 °F 89% 30.19 in 10.0 mi South 3.5 mph - N/A   Clear
7:51 AM 41.0 °F 39.0 °F 37.9 °F 89% 30.20 in 10.0 mi SSE 3.5 mph - N/A   Clear
8:51 AM 44.1 °F - 39.9 °F 85% 30.22 in 10.0 mi Calm Calm - N/A   Clear
9:51 AM 48.9 °F - 41.0 °F 74% 30.22 in 10.0 mi SW 3.5 mph - N/A   Clear
10:51 AM 54.0 °F - 42.1 °F 64% 30.22 in 10.0 mi Calm Calm - N/A   Partly Cloudy
11:51 AM 57.9 °F - 42.1 °F 56% 30.21 in 10.0 mi West 9.2 mph - N/A   Scattered Clouds
12:51 PM 59.0 °F - 37.0 °F 44% 30.19 in 10.0 mi NW 9.2 mph - N/A   Mostly Cloudy
1:51 PM 62.1 °F - 36.0 °F 38% 30.19 in 10.0 mi West 10.4 mph 19.6 mph N/A   Mostly Cloudy
2:51 PM 61.0 °F - 36.0 °F 39% 30.18 in 10.0 mi WNW 10.4 mph - N/A   Mostly Cloudy
3:51 PM 62.1 °F - 35.1 °F 37% 30.17 in 10.0 mi WNW 10.4 mph - N/A   Mostly Cloudy
4:51 PM 63.0 °F - 35.1 °F 35% 30.17 in 10.0 mi West 9.2 mph - N/A   Mostly Cloudy
5:51 PM 61.0 °F - 35.1 °F 38% 30.17 in 10.0 mi NW 9.2 mph 19.6 mph N/A   Mostly Cloudy
6:51 PM 60.8 °F - 35.6 °F 39% 30.16 in 10.0 mi WNW 6.9 mph - N/A   Mostly Cloudy
7:51 PM 57.9 °F - 35.1 °F 42% 30.18 in 10.0 mi NW 6.9 mph - N/A   Scattered Clouds
8:51 PM 55.9 °F - 35.1 °F 45% 30.20 in 10.0 mi NW 5.8 mph - N/A   Partly Cloudy
9:51 PM 54.0 °F - 35.1 °F 49% 30.21 in 10.0 mi NNW 4.6 mph - N/A   Partly Cloudy
10:51 PM 52.0 °F - 36.0 °F 54% 30.22 in 10.0 mi NNW 5.8 mph - N/A   Scattered Clouds
11:51 PM 48.9 °F - 37.9 °F 66% 30.24 in 10.0 mi North 3.5 mph - N/A   Clear